Regional Weather Roundup
Issued by NWS

Home | Current Version | Previous Version | Text Only | Print | Product List | Glossary Off
Versions: 1 2 3 4 5 6 7 8 9 10 11 12 13 14 15 16 17 18 19 20 21 22 23 24 25 26 27 28 29 30 31 32 33 34 35 36 37 38 39 40 41 42 43 44 45 46 47 48 49 50

000
ASUS43 KDMX 192101
RWRIA

WEATHER ROUNDUP FOR IOWA
NATIONAL WEATHER SERVICE DES MOINES IA
300 PM CST FRI JAN 19 2018

NOTE: "FAIR" INDICATES FEW OR NO CLOUDS BELOW 12,000 FEET WITH NO
SIGNIFICANT WEATHER AND/OR OBSTRUCTIONS TO VISIBILITY.

* - THESE STATIONS ARE NOT NWS STATIONS...THUS NOT UNDER NWS
QUALITY CONTROL.  THEY ALSO DO NOT REPORT WEATHER SUCH
AS PRECIPITATION OR FOG.

IAZ001>003-012>014-020>022-031>034-043>046-192200-
   NORTHWEST IOWA

CITY           SKY/WX    TMP DP  RH WIND       PRES   REMARKS
CARROLL *      CLOUDY    45  30  57 SW26G33   29.59S
CHEROKEE *     CLOUDY    49  29  45 SW12G17   29.57R
DENISON *      CLOUDY    45  30  57 S15G21    29.62F
LE MARS *      CLOUDY    54  30  40 SW13      29.56R
ORANGE CITY *  CLOUDY    54  36  50 SW9       29.55S
SHELDON *      CLOUDY    50  34  53 SW9       29.53R
SIOUX CITY     CLOUDY    56  32  40 S9        29.58R
SPENCER        CLOUDY    50  30  46 SW14      29.54S
STORM LAKE *   CLOUDY    50  28  43 SW16G22   29.56S
$$

IAZ055>058-069>071-079>083-090>094-192200-
   SOUTHWEST IOWA

CITY           SKY/WX    TMP DP  RH WIND       PRES   REMARKS
ATLANTIC *     CLOUDY    43  32  65 S17       29.65F
AUDUBON *      CLOUDY    43  32  65 S15G21    29.65R
CLARINDA *     CLOUDY    43  30  61 SW13G18     N/A
COUNCIL BLFS * CLOUDY    43  30  61 S15G21    29.65F
CRESTON *      CLOUDY    45  30  57 SW17      29.71S
HARLAN  *      CLOUDY    41  32  70 S12       29.69R
LAMONI         CLOUDY    48  26  42 S16       29.72F
RED OAK *      CLOUDY    45  32  61 S12       29.70R
SHENANDOAH *   CLOUDY    46  34  61 S7        29.71S
$$

IAZ047>049-059>061-072>074-084-192200-
   CENTRAL IOWA

CITY           SKY/WX    TMP DP  RH WIND       PRES   REMARKS
AMES           CLOUDY    44  31  60 S14G23    29.63S
ANKENY *       CLOUDY    46  27  46 S10G18    29.66S
BOONE *        CLOUDY    43  30  61 SW17G23   29.60R
CHARITON *     CLOUDY    45  28  53 S15       29.71S
DES MOINES     CLOUDY    47  27  45 S17G26    29.66F
GRINNELL*      CLOUDY    42  29  60 S16       29.68F
KNOXVILLE *    CLOUDY    45  27  49 S14       29.67F
MARSHALLTOWN   CLOUDY    44  29  55 S20       29.62F
NEWTON *       CLOUDY    43  28  56 S14       29.67S
PELLA *        CLOUDY    45  27  50 S16G22    29.69F
PERRY *          N/A     44  31  59 S18       29.63R
$$

IAZ004>006-015-016-023>025-035-036-192200-
   NORTH CENTRAL IOWA

CITY           SKY/WX    TMP DP  RH WIND       PRES   REMARKS
ALGONA *       CLOUDY    43 N/A N/A S10G16    29.55R
CLARION *      CLOUDY    43  34  70 SW20G25   29.57S
ESTHERVILLE    CLOUDY    48  33  56 W12       29.52R
FORT DODGE *   CLOUDY    42  31  64 SW14      29.58F
MASON CITY     CLOUDY    43  32  65 SW14      29.57R
FOREST CITY *    N/A     43  32  65 SW13      29.56R
WEBSTER CITY * CLOUDY    43  32  65 SW15      29.58R
IOWA FALLS *     N/A     42  32  68 S21       29.60S
$$

IAZ007>011-017>019-026>030-037>042-050>054-066-192200-
   NORTHEAST IOWA

CITY           SKY/WX    TMP DP  RH WIND       PRES   REMARKS
CEDAR RAPIDS     N/A     44  29  55 S17G23    29.68F
CHARLES CITY *   N/A     41  34  75 S16       29.58S
CLINTON *        N/A     42  30  62 S12       29.74F
DECORAH *        N/A     41  30  65 S9G17     29.56F
DUBUQUE          N/A     39  27  62 S22       29.65F WCI  29
MONTICELLO *     N/A     43  28  56 S14       29.68S
OELWEIN *        N/A     41  32  70 S18G26    29.62S
WATERLOO         N/A     44  28  53 S17       29.61F
$$

IAZ064-065-067-068-078-192200-
   EAST CENTRAL IOWA

CITY           SKY/WX    TMP DP  RH WIND       PRES   REMARKS
DAVENPORT        N/A     44  26  49 S21       29.75F
IOWA CITY        N/A     45  27  49 S15       29.73F
MT. PLEASANT * MOSUNNY   45  28  53 S16       29.76F
MUSCATINE *      N/A     45  30  57 S9        29.76S
QUAD CITIES      N/A     44  28  53 SW10      29.74F
$$

IAZ062-063-075>077-085>089-095>099-192200-
   SOUTHEAST IOWA

CITY           SKY/WX    TMP DP  RH WIND       PRES   REMARKS
BURLINGTON     CLOUDY    44  28  53 S18G28    29.77F
FAIRFIELD *    CLOUDY    45  27  49 S12       29.73F
FORT MADISON * CLOUDY    46  28  49 S13G18    29.78S
KEOKUK *       CLOUDY    48  27  43 S16       29.78S
OSKALOOSA *      N/A     44  30  58 S13       29.71F
OTTUMWA        CLOUDY    46  26  45 SW13G28   29.72F
WASHINGTON *   CLOUDY    43  30  61 S15       29.74F
$$

ABBREVIATIONS USED IN REMARKS
   TC - TEMPERATURES IN CELSIUS
  WCI - WIND CHILL INDEX
   HX - HEAT INDEX
  VSB - VISIBILITY
$$





USA.gov is the U.S. government's official web portal to all federal, state and local government web resources and services.